CES5402 WSSS-ZYTX

Flight info

Callsign CES5402
Flight time N/A
Altitude 32000
Route VMR L642 ENREP/N0468F340 M753 IPRIX/K0867F340 M753 BITOD/K0865F350 L637 TSH Q2 PATMA DCT ENGIM Q1 DAN A1 IKELA/N0450F270 A1 BIGEX/N0459F370 DCT BEKOL/K0857S1100 DCT IDUMA A461 YIN/K0852S1130 A461 MEXON/K0850S1160 W616 XINUL DCT UKLUK/K0850S1130 W56 LEBUN/K0837S1160 W56 NUDKU/K0832S1130 W56 VYK DCT IGMOR DCT ENVAV DCT OTBUL W35 CHG A575 OMDUS
Aircraft A320/M-SDE2E3FGILRWXY/LB2

Departure

Time 2026-05-08 04:01
Airport Singapore Changi Airport (WSSS)

Arrival

Time N/A
Airport Shenyang Taoxian International Airport (ZYTX)
Time Latitude Longitude Altitude Speed Heading
2026-05-08 03:46 1.36655 103.99039 24 ft 0 kts 272°
2026-05-08 03:54 1.36654 103.99051 24 ft 4 kts 272°
2026-05-08 03:54 1.36653 103.99078 25 ft 4 kts 274°
2026-05-08 03:54 1.36649 103.99104 24 ft 4 kts 293°
2026-05-08 03:55 1.36634 103.99123 26 ft 4 kts 346°
2026-05-08 03:55 1.36629 103.99125 25 ft 0 kts 354°
2026-05-08 03:57 1.36630 103.99125 25 ft 1 kts 354°
2026-05-08 03:57 1.36656 103.99134 25 ft 7 kts 36°
2026-05-08 03:57 1.36669 103.99178 24 ft 7 kts 102°
2026-05-08 03:58 1.36648 103.99230 25 ft 9 kts 113°
2026-05-08 03:58 1.36622 103.99290 25 ft 10 kts 113°
2026-05-08 03:58 1.36593 103.99359 25 ft 11 kts 113°
2026-05-08 03:58 1.36561 103.99435 24 ft 13 kts 113°
2026-05-08 03:59 1.36524 103.99523 26 ft 14 kts 113°
2026-05-08 03:59 1.36483 103.99618 24 ft 16 kts 113°
2026-05-08 03:59 1.36441 103.99718 24 ft 14 kts 112°
2026-05-08 03:59 1.36409 103.99795 24 ft 12 kts 113°
2026-05-08 04:00 1.36351 103.99845 26 ft 12 kts 162°
2026-05-08 04:00 1.36272 103.99869 26 ft 11 kts 163°
2026-05-08 04:00 1.36205 103.99887 24 ft 10 kts 176°
2026-05-08 04:00 1.36086 103.99846 24 ft 40 kts 203°
2026-05-08 04:01 1.35590 103.99636 24 ft 111 kts 202°
2026-05-08 04:01 1.34701 103.99262 26 ft 164 kts 202°
2026-05-08 04:01 1.33564 103.98787 470 ft 179 kts 202°
2026-05-08 04:01 1.32408 103.98300 1312 ft 181 kts 204°
2026-05-08 04:02 1.31249 103.97809 2136 ft 181 kts 204°
2026-05-08 04:02 1.30092 103.97320 2940 ft 180 kts 204°
2026-05-08 04:02 1.28932 103.96830 3534 ft 183 kts 203°
2026-05-08 04:02 1.27696 103.96308 3697 ft 203 kts 203°
2026-05-08 04:03 1.26322 103.95727 3833 ft 226 kts 203°
2026-05-08 04:03 1.23052 103.94997 4675 ft 257 kts 168°
2026-05-08 04:03 1.21435 103.95776 5304 ft 263 kts 142°
2026-05-08 04:04 1.20044 103.96981 6016 ft 266 kts 140°
2026-05-08 04:04 1.18650 103.98207 6702 ft 269 kts 140°
2026-05-08 04:04 1.17258 103.99464 7342 ft 272 kts 134°
2026-05-08 04:04 1.16300 104.01099 7979 ft 277 kts 106°
2026-05-08 04:05 1.16191 104.03021 8623 ft 282 kts 79°
2026-05-08 04:05 1.16989 104.04811 9265 ft 287 kts 53°
2026-05-08 04:05 1.18220 104.06390 9910 ft 289 kts 52°
2026-05-08 04:05 1.19529 104.07947 10284 ft 302 kts 46°
2026-05-08 04:06 1.21197 104.09333 10412 ft 323 kts 34°
2026-05-08 04:06 1.23215 104.10460 10518 ft 343 kts 24°
2026-05-08 04:06 1.25549 104.11180 10652 ft 360 kts 10°
2026-05-08 04:06 1.28098 104.11308 10848 ft 373 kts 355°
2026-05-08 04:07 1.30635 104.10741 11273 ft 378 kts 339°
2026-05-08 04:07 1.32952 104.09489 11763 ft 381 kts 323°
2026-05-08 04:07 1.35000 104.07785 12248 ft 384 kts 320°
2026-05-08 04:07 1.37037 104.06046 12753 ft 387 kts 320°
2026-05-08 04:08 1.38667 104.04657 13152 ft 388 kts 320°
2026-05-08 04:08 1.40622 104.03109 13584 ft 390 kts 327°
2026-05-08 04:08 1.43000 104.01801 14010 ft 392 kts 338°
2026-05-08 04:08 1.45575 104.00900 14416 ft 393 kts 343°
2026-05-08 04:09 1.48188 104.00062 14836 ft 396 kts 343°
2026-05-08 04:09 1.50823 103.99216 15232 ft 399 kts 343°
2026-05-08 04:09 1.53473 103.98362 15646 ft 401 kts 343°
2026-05-08 04:09 1.56138 103.97501 16051 ft 404 kts 343°
2026-05-08 04:10 1.58820 103.96633 16448 ft 407 kts 343°
2026-05-08 04:10 1.61486 103.95770 16836 ft 409 kts 343°
2026-05-08 04:10 1.64206 103.94888 17223 ft 412 kts 343°
2026-05-08 04:10 1.66940 103.94001 17609 ft 415 kts 343°
2026-05-08 04:11 1.69692 103.93110 17992 ft 417 kts 343°
2026-05-08 04:11 1.72461 103.92216 18348 ft 420 kts 343°
2026-05-08 04:11 1.75270 103.91401 18675 ft 421 kts 349°
2026-05-08 04:11 1.78173 103.91027 19003 ft 421 kts 358°
2026-05-08 04:12 1.81107 103.90847 19336 ft 423 kts 358°
2026-05-08 04:12 1.84057 103.90659 19674 ft 425 kts 358°
2026-05-08 04:12 1.87019 103.90466 20009 ft 428 kts 358°
2026-05-08 04:12 1.89991 103.90276 20336 ft 429 kts 358°
2026-05-08 04:13 1.92979 103.90088 20659 ft 431 kts 358°
2026-05-08 04:13 1.95986 103.89900 20979 ft 434 kts 358°
2026-05-08 04:13 1.99000 103.89711 21285 ft 435 kts 358°
2026-05-08 04:13 2.02030 103.89520 21590 ft 437 kts 358°
2026-05-08 04:14 2.05074 103.89324 21885 ft 439 kts 358°
2026-05-08 04:14 2.08130 103.89125 22171 ft 441 kts 358°
2026-05-08 04:14 2.11201 103.88925 22447 ft 443 kts 358°
2026-05-08 04:14 2.14284 103.88727 22708 ft 445 kts 358°
2026-05-08 04:15 2.17384 103.88528 22965 ft 447 kts 358°
2026-05-08 04:15 2.20492 103.88329 23223 ft 449 kts 358°
2026-05-08 04:15 2.23612 103.88131 23472 ft 451 kts 358°
2026-05-08 04:15 2.26752 103.87932 23685 ft 452 kts 358°
2026-05-08 04:16 2.29897 103.87734 23896 ft 454 kts 358°
2026-05-08 04:16 2.33056 103.87534 24118 ft 455 kts 358°
2026-05-08 04:16 2.36217 103.87331 24333 ft 457 kts 358°
2026-05-08 04:16 2.39396 103.87304 24545 ft 456 kts
2026-05-08 04:17 2.42533 103.87720 24756 ft 456 kts 11°
2026-05-08 04:17 2.45675 103.88201 24968 ft 457 kts 11°
2026-05-08 04:17 2.48825 103.88675 25181 ft 459 kts 10°
2026-05-08 04:17 2.51993 103.89147 25396 ft 460 kts 10°
2026-05-08 04:18 2.55160 103.89618 25640 ft 461 kts 10°
2026-05-08 04:18 2.58328 103.90089 25945 ft 459 kts 10°
2026-05-08 04:18 2.61485 103.90559 26244 ft 459 kts 10°
2026-05-08 04:18 2.64641 103.91028 26543 ft 458 kts 10°
2026-05-08 04:19 2.67796 103.91497 26832 ft 458 kts 10°
2026-05-08 04:19 2.70938 103.91965 27132 ft 457 kts 10°